This is the latest recevied weather packets stored in our database for station/object K0APR. If no packets are shown the sender has not sent any weather packets the latest 10 day(s).
| Time | Temp. | Humidity | Pressure | Rain* | Wind** | Luminosity | Snow |
|---|---|---|---|---|---|---|---|
| 1777259052 | 8.33° C | 97% | 1009.2 hPa | 4.32 mm | - | 0 W/m² | - |
| 1777258750 | 8.33° C | 97% | 1009.2 hPa | 6.1 mm | - | 0 W/m² | - |
| 1777258446 | 8.33° C | 97% | 1009.2 hPa | 4.83 mm | - | 0 W/m² | - |
| 1777258142 | 8.33° C | 96% | 1009.5 hPa | 4.83 mm | - | 0 W/m² | - |
| 1777257840 | 8.33° C | 96% | 1009.8 hPa | 4.83 mm | - | 0 W/m² | - |
| 1777257537 | 8.33° C | 96% | 1010.2 hPa | 3.05 mm | - | 0 W/m² | - |
| 1777257234 | 8.33° C | 96% | 1010.2 hPa | 4.32 mm | - | 0 W/m² | - |
| 1777256931 | 8.33° C | 96% | 1009.8 hPa | 4.32 mm | - | 0 W/m² | - |
| 1777256627 | 8.33° C | 96% | 1009.5 hPa | 1.27 mm | - | 0 W/m² | - |
| 1777256323 | 8.89° C | 96% | 1009.5 hPa | 1.78 mm | - | 0 W/m² | - |
| 1777256019 | 8.33° C | 96% | 1009.8 hPa | 1.78 mm | - | 0 W/m² | - |
| 1777255715 | 8.33° C | 96% | 1009.5 hPa | 0 mm | - | 0 W/m² | - |
| 1777255412 | 8.89° C | 95% | 1009.5 hPa | 1.27 mm | - | 0 W/m² | - |
| 1777255107 | 8.89° C | 95% | 1009.5 hPa | 1.27 mm | - | 0 W/m² | - |
| 1777254804 | 8.89° C | 95% | 1009.5 hPa | 1.78 mm | - | 0 W/m² | - |
| 1777254502 | 8.89° C | 95% | 1009.5 hPa | 3.05 mm | - | 0 W/m² | - |
| 1777254198 | 8.89° C | 95% | 1009.5 hPa | 3.05 mm | - | 0 W/m² | - |
| 1777253894 | 8.89° C | 95% | 1009.8 hPa | 1.78 mm | - | 0 W/m² | - |
| 1777253590 | 8.89° C | 95% | 1009.5 hPa | 0 mm | - | 0 W/m² | - |
| 1777253288 | 8.89° C | 94% | 1009.5 hPa | 1.78 mm | - | 0 W/m² | - |
| 1777252986 | 8.89° C | 94% | 1009.2 hPa | 1.78 mm | - | 0 W/m² | - |
| 1777252683 | 8.89° C | 94% | 1009.8 hPa | 1.27 mm | - | 0 W/m² | - |
| 1777252380 | 8.89° C | 94% | 1009.5 hPa | 3.05 mm | - | 0 W/m² | - |
| 1777252077 | 8.89° C | 94% | 1009.8 hPa | 1.78 mm | - | 0 W/m² | - |
| 1777251774 | 8.89° C | 94% | 1009.8 hPa | 1.27 mm | - | 0 W/m² | - |
* Rain latest hour (hover to see other rain measurements)
** Current wind speed in m/s (hover to see current wind gust speed)